Lake Allatoona Weather Center

Moon Phase Calendar



Lake Allatoona Water Level
Online Cameras

 


      

Current Conditions in Acworth
7/21/2024 10:16:01 AM

78°F
Feels Like 79
Clouds
Humidity
76%
Pressure
30.06"
Wind
3.4 mph (WNW)
Dew Point
69°F
UV Index
3/10 (Moderate)
Visibility
6 mi

Hourly Forecast

Date & Time Sun, Jul 21
10:00 AM
Sun, Jul 21
11:00 AM
Sun, Jul 21
12:00 PM
Sun, Jul 21
1:00 PM
Sun, Jul 21
2:00 PM
Sun, Jul 21
3:00 PM
Sun, Jul 21
4:00 PM
Sun, Jul 21
5:00 PM
Sun, Jul 21
6:00 PM
Sun, Jul 21
7:00 PM
Sun, Jul 21
8:00 PM
Sun, Jul 21
9:00 PM
Sun, Jul 21
10:00 PM
Sun, Jul 21
11:00 PM
Mon, Jul 22
12:00 AM
Mon, Jul 22
1:00 AM
Mon, Jul 22
2:00 AM
Mon, Jul 22
3:00 AM
Mon, Jul 22
4:00 AM
Mon, Jul 22
5:00 AM
Mon, Jul 22
6:00 AM
Mon, Jul 22
7:00 AM
Mon, Jul 22
8:00 AM
Mon, Jul 22
9:00 AM
Mon, Jul 22
10:00 AM
Mon, Jul 22
11:00 AM
Mon, Jul 22
12:00 PM
Mon, Jul 22
1:00 PM
Mon, Jul 22
2:00 PM
Mon, Jul 22
3:00 PM
Mon, Jul 22
4:00 PM
Mon, Jul 22
5:00 PM
Mon, Jul 22
6:00 PM
Mon, Jul 22
7:00 PM
Mon, Jul 22
8:00 PM
Mon, Jul 22
9:00 PM
Mon, Jul 22
10:00 PM
Mon, Jul 22
11:00 PM
Tue, Jul 23
12:00 AM
Tue, Jul 23
1:00 AM
Tue, Jul 23
2:00 AM
Tue, Jul 23
3:00 AM
Tue, Jul 23
4:00 AM
Tue, Jul 23
5:00 AM
Tue, Jul 23
6:00 AM
Tue, Jul 23
7:00 AM
Tue, Jul 23
8:00 AM
Tue, Jul 23
9:00 AM
Condition
Clouds

Clouds

Clouds

Clouds

Clouds

Clouds

Clouds

Clouds

Clouds

Rain

Rain

Rain

Rain

Rain

Rain

Clouds

Clouds

Rain

Clouds

Clouds

Clouds

Clouds

Clouds

Clouds

Clouds

Clouds

Clouds

Clouds

Rain

Rain

Rain

Clouds

Rain

Rain

Rain

Clear

Rain

Rain

Clouds

Clouds

Clouds

Clouds

Clouds

Clouds

Clouds

Clouds

Rain

Clouds
Temperature 78°F78°F79°F80°F85°F89°F90°F86°F84°F83°F77°F71°F72°F72°F72°F71°F71°F70°F69°F68°F68°F68°F69°F72°F75°F79°F80°F82°F84°F82°F84°F86°F84°F82°F77°F74°F73°F72°F72°F71°F71°F71°F70°F70°F70°F70°F71°F71°F
Feels Like 79°F79°F79°F83°F89°F92°F92°F90°F88°F87°F78°F73°F73°F73°F73°F73°F72°F71°F70°F70°F69°F69°F70°F73°F76°F79°F83°F85°F88°F86°F88°F89°F88°F85°F78°F75°F74°F73°F73°F73°F72°F72°F71°F71°F71°F71°F72°F72°F
Cloudiness 100%100%100%100%98%92%97%98%99%100%100%99%100%100%100%100%100%100%100%100%100%100%100%100%100%100%100%100%100%98%77%54%50%47%39%5%49%66%75%80%83%100%100%100%100%100%100%99%
Visibility 6 mi6 mi6 mi6 mi6 mi6 mi6 mi6 mi6 mi6 mi4 mi2 mi6 mi6 mi6 mi6 mi6 mi6 mi6 mi6 mi6 mi6 mi6 mi6 mi6 mi6 mi6 mi6 mi6 mi6 mi6 mi6 mi6 mi6 mi6 mi6 mi6 mi6 mi6 mi6 mi6 mi6 mi6 mi6 mi6 mi6 mi6 mi6 mi
Precipitation 8%81%85%79%73%0%0%0%0%21%84%100%100%100%100%80%80%43%27%12%6%1%0%0%0%0%0%0%20%100%100%80%100%100%100%50%100%100%80%80%80%0%0%0%0%2%23%15%
Humidity 76%77%74%68%57%47%45%56%61%64%82%98%97%95%96%96%97%97%97%96%96%94%91%84%76%67%64%60%58%71%61%55%61%69%83%90%92%92%92%93%93%94%95%95%95%95%95%95%
Dew Point 69°F70°F70°F69°F68°F67°F66°F68°F69°F70°F70°F70°F71°F70°F70°F70°F70°F69°F68°F67°F66°F66°F66°F67°F67°F67°F67°F67°F68°F71°F69°F68°F69°F70°F71°F71°F70°F69°F69°F69°F69°F69°F69°F68°F68°F68°F69°F69°F
Pressure 30.06"30.06"30.06"30.06"30.03"30"29.97"29.97"29.97"29.94"30"30"30.03"30.06"30.03"30"30"30"30.03"30.03"30.03"30.03"30.06"30.06"30.06"30.06"30.06"30.03"30"30"30"29.97"29.97"30"30"30"30.03"30.03"30"30.03"30.03"30.03"30.03"30.03"30.06"30.06"30.09"30.09"
Wind Speed 2.8 mph2.4 mph3.5 mph4.6 mph4.4 mph4.2 mph5.3 mph5.8 mph3.8 mph2.1 mph6.2 mph10.2 mph4 mph5.6 mph4.2 mph2.7 mph2.4 mph2.3 mph2.6 mph2.7 mph3.2 mph2.2 mph1.5 mph1.7 mph2.3 mph3.4 mph3.8 mph3.8 mph5.1 mph6.6 mph5.8 mph5.7 mph6 mph7 mph5.4 mph4.2 mph3.8 mph3.3 mph2.6 mph2 mph2.6 mph2.5 mph2.9 mph1.9 mph2.6 mph3.2 mph2.3 mph1.9 mph
Wind
Direction
227°
SW
234°
SW
224°
SW
227°
SW
227°
SW
226°
SW
242°
WSW
260°
W
267°
W
283°
WNW
197°
SSW
181°
S
137°
SE
184°
S
159°
SSE
148°
SSE
207°
SSW
197°
SSW
196°
SSW
192°
SSW
222°
SW
219°
SW
256°
WSW
257°
WSW
221°
SW
208°
SSW
216°
SW
214°
SW
216°
SW
265°
W
244°
WSW
229°
SW
220°
SW
194°
SSW
190°
S
187°
S
201°
SSW
187°
S
228°
SW
198°
SSW
158°
SSE
161°
SSE
172°
S
174°
S
176°
S
196°
SSW
203°
SSW
126°
SE

Daily Forecast

Date High Low Precip. Humidity
Today
Jul 21

Rain
90 °F
70 °F
100%
68%
Monday
Jul 22

Rain
86 °F
68 °F
100%
60%
Tuesday
Jul 23

Rain
85 °F
70 °F
100%
75%
Wednesday
Jul 24

Rain
85 °F
70 °F
100%
64%
Thursday
Jul 25

Rain
77 °F
71 °F
100%
88%
Friday
Jul 26

Rain
80 °F
70 °F
100%
77%
Saturday
Jul 27

Rain
88 °F
70 °F
100%
71%
Sunday
Jul 28

Rain
84 °F
72 °F
100%
70%
Monday
Jul 29

Rain
84 °F
71 °F
100%
66%
Tuesday
Jul 30

Rain
90 °F
71 °F
94%
52%
Wednesday
Jul 31

Rain
94 °F
72 °F
22%
44%
Thursday
Aug 1

Rain
92 °F
74 °F
99%
47%
Friday
Aug 2

Clouds
91 °F
76 °F
0%
50%
Saturday
Aug 3

Rain
96 °F
74 °F
77%
42%
Sunday
Aug 4

Rain
89 °F
71 °F
54%
49%
Monday
Aug 5

Rain
90 °F
71 °F
30%
63%

Temperature 8-14 Day Outlook



Precipitation 8-14 Day Outlook






About Us
Contact Us
Site Map
Search Site
Advertise With Us
   
Allatoona.USLakes.info
THE LAKE ALLATOONA WEBSITE

Copyright 2024, Lakes Online
Privacy    |    Legal